Regional Weather Roundup
Issued by NWS

Home | Current Version | Previous Version | Text Only | Print | Product List | Glossary On
Versions: 1 2 3 4 5 6 7 8 9 10 11 12 13 14 15 16 17 18 19 20 21 22 23 24 25 26 27 28 29 30 31 32 33 34 35 36 37 38 39 40 41 42 43 44 45 46 47 48 49 50
457
ASHW40 PHFO 210843
RWRHI

WEATHER ROUNDUP FOR HAWAII
NATIONAL WEATHER SERVICE HONOLULU HI
1000 PM HST THU JUL 20 2017

THIS IS AN AUTOMATED REPORT THAT HAS NOT BEEN QUALITY CONTROLLED.

NOTE..."FAIR" INDICATES FEW OR NO CLOUDS BELOW 12,000 FEET WITH NO
SIGNIFICANT WEATHER AND/OR OBSTRUCTIONS TO VISIBILITY.

* - THESE SITES REPORT LIMITED FIELDS
# - BUOY DATA PROVIDED BY PACIFIC ISLANDS OCEAN OBSERVING SYSTEM.

HIZ001>004-210900-
KAUAI-NIIHAU-

CITY           SKY/WX    TMP DP  RH WIND       PRES   REMARKS
LIHUE APT      PTCLDY    80  70  71 NE15      30.11R
PORT ALLEN*      N/A     79 N/A N/A NE15        N/A
POIPU*           N/A     79 N/A N/A NE8G17      N/A
PRINCEVILLE*     N/A     75 N/A N/A S3          N/A
KOKOLE POINT*  NOT AVBL
MOLOAA DAIRY*    N/A     77  68  73 E3G10       N/A
WAIMEA HTS*      N/A     79  61  53 E9G17       N/A
PUU OPAE*        N/A     70  59  68 NE3G12      N/A
PUU LUA*       NOT AVBL
MAKAHA RIDGE*    N/A     72  55  56 E2G10       N/A
$$

HIZ005>011-210900-
OAHU-

CITY           SKY/WX    TMP DP  RH WIND       PRES   REMARKS
HONOLULU       PTCLDY    78  65  63 NE16      30.06R
KALAELOA       CLEAR     79  65  62 NE7       30.08R
KANEOHE MCB    NOT AVBL
WHEELER FIELD  FAIR      75  64  69 CALM      30.08
BELLOWS*         N/A    N/A N/A N/A NE20        N/A
KAHUKU*          N/A    N/A N/A N/A E10G20      N/A
WHEELER*         N/A    N/A N/A N/A W2          N/A
WAIANAE HARBOR   N/A    N/A N/A N/A E7G15       N/A
DILLINGHAM*      N/A     72  64  78 W1          N/A
KAHUKU TRN*      N/A     88  79  74 W8G22       N/A  HX 102
KAWAILOA*        N/A     72  66  83 E3G17       N/A
KII*             N/A     79  72  78 CALM        N/A
MAKUA RANGE*     N/A     91  75  59 W3G15       N/A  HX 102
OAHU FOREST NW   N/A     72  64  78 E25G41      N/A
SCHOFIELD BRK*   N/A     72  64  78 MISG        N/A
SCHOFIELD S*   NOT AVBL
WAIANAE VLY*     N/A     75  63  64 VRB9G25     N/A
KUAOKALA*        N/A     73  64  73 E9G22       N/A
HONOULIUULI*   NOT AVBL
MOKUOLOE IS*   NOT AVBL
PALEHUA*         N/A     66  63  88 NE16G25     N/A
WAIAWA PHB*    NOT AVBL
$$

HIZ012>013-210900-
MOLOKAI-

CITY           SKY/WX    TMP DP  RH WIND       PRES   REMARKS
MOLOKAI AIRPT  CLEAR     80  69  69 NE15G25   30.08R
KALAUPAPA      NOT AVBL
MAKAPULAPAI*     N/A     79  68  69 E18G26      N/A
MOLOKAI 1*       N/A     66 N/A N/A E3          N/A
PUU ALII*        N/A     61  60  96 N3G14       N/A
$$

HIZ016-210900-
KAHOOLAWE-

CITY           SKY/WX    TMP DP  RH WIND       PRES   REMARKS
KAHOOLAWE*     NOT AVBL
HAKIOAWA*        N/A     74  65  74 MISG      30.49R
HONOKANAIA*      N/A     80  64  58 NE10G23   29.98R
KANELOA*         N/A     75  68  78 E14G32    30.11R
KEALIALALO*    NOT AVBL
LUA MAKIKA*    NOT AVBL
$$

HIZ014>015-210900-
LANAI-

CITY           SKY/WX    TMP DP  RH WIND       PRES   REMARKS
LANAI CITY     FAIR      72  66  81 NE10G24   30.11R
LANAI 1*       NOT AVBL
$$

HIZ017>028-210900-
MAUI-

CITY           SKY/WX    TMP DP  RH WIND       PRES   REMARKS
KAHULUI        PTCLDY    76  68  76 NE10      30.07R
KAPALUA-W MAUI NOT AVBL
HANA AIRPORT   PTCLDY    77  68  73 NE6       30.13S
HANA*            N/A     79 N/A N/A NE9G16      N/A
HALEAKALA SUMM   N/A     45  32  61 SE24        N/A
MAALAEA BAY*     N/A     77 N/A N/A N21G30      N/A
HALEAKALA*     NOT AVBL
KAUPO GAP*     NOT AVBL
KULA 1*          N/A     50  44  80 SE3         N/A
$$

HIZ023>026-210900-
BIG ISLAND OF HAWAII COAST AND LOWER SLOPES-

CITY           SKY/WX    TMP DP  RH WIND       PRES   REMARKS
KAILUA KONA    CLEAR     79  63  57 N8        30.00R
HILO           CLOUDY    73  70  88 CALM      30.07S
HONOKAA*         N/A     70 N/A N/A VRB1        N/A
KAWAIHAE MWT*    N/A     82 N/A N/A NE17G29     N/A
KAWAIHAE*        N/A     82 N/A N/A E14       30.01S
SOUTH POINT*     N/A     73 N/A N/A N13G23      N/A
UPOLU AIRPORT* NOT AVBL
KAMUELA*       NOT AVBL
HAKALAU*         N/A     48  48 100 SW3         N/A
KALOKO-HONOKO*   N/A     77  70  78 SE2G12      N/A
PALI 2*          N/A     66  59  77 S17G26      N/A
KEALAKOMO*       N/A     79  63  57 N21G32      N/A
KAUPULEHU*       N/A     72  61  68 SE9         N/A
KAPAPALA*        N/A     65  60  83 N6          N/A
LOWER KAHUKU*    N/A     61  59  94 N2          N/A
PUHE CS*         N/A    N/A N/A N/A NE12G24     N/A
PUHO CS*         N/A     77  68  72 E2          N/A
PTA KEAMUKU*   NOT AVBL
WAIKOLOA*        N/A    N/A N/A N/A E16G29      N/A
$$

HIZ027>028-210900-
BIG ISLAND OF HAWAII INTERIOR AND SUMMMITS-

CITY           SKY/WX    TMP DP  RH WIND       PRES   REMARKS
BRADSHAW FIELD CLOUDY    53  49  87 CALM      30.36
MK VISITOR CEN   N/A     52  34  50 E15         N/A
MAUNA KEA*       N/A     39 -13  10 NE12        N/A
MAUNA LOA*       N/A     50 -22   4 MISG        N/A
MAUNA LOA 1*   NOT AVBL
PTA KIPUKA*      N/A     57  54  88 SW3G12      N/A
PTA RANGE 17*    N/A     75  64  69 E13G23      N/A
PTA WEST*        N/A     79  68  69 SE7G24      N/A
NENE CABIN*      N/A     52  39  62 NE5G15      N/A
AHUMOA*          N/A     52  48  86 E3          N/A
PTA PORTABLE*  NOT AVBL
PUU MALI*        N/A     59  39  47 E9G26       N/A
$$

HIC003-210900-
NORTHWEST ISLANDS-

CITY           SKY/WX    TMP DP  RH WIND       PRES   REMARKS
MIDWAY ISLAND  CLOUDY    75  72  88 E21       30.08R
MIDWAY NOS*      N/A     75 N/A N/A MISG      30.07R
FRENCH FRIGATE NOT AVBL
$$

PHZ110>124-180-210900-
BUOY REPORTS

STATION/POSITION TIME  TEMP    WIND        PRES    WAVE   SWELL
                       AIR SEA DIR/SP/G            HT/PER HT/DIR
                 (UTC) (F)     (DEG/KT/KT) (MB)    (FT/S) (FT/D)
BUOY 51001       0820   80 81   80/ 14/ 17 1020.3
BUOY 51101       0750   80 81   70/ 16/ 17 1020.5R   7/ 8   5/100
BUOY 51100       NOT AVBL
BUOY 51002       0830   80 80   60/ 16/ 19 1015.9R
BUOY 51003       0750   81 81   50/ 12/ 16 1016.8R   6/ 8   5/ 80
BUOY 51004       0750      79   70/ 16/ 19 1015.4R   8/ 9   5/ 80
WAIMEA BAY#      0802      78                N/A     4/ 7
MOKAPU POINT#    0804      80                N/A     7/ 7   2/100
LANAI#           NOT AVBL
BARBERS PT 2#    NOT AVBL
PAUWELA#         0809      80                N/A     6/ 8   2/ 90
HILO#            0827      80                N/A     8/ 9   3/110
KANEOHE BAY#     0825      79                N/A     6/ 8   2/ 80
KANEOHE BAY 2#   NOT AVBL
HANALEI#         0822      81                N/A     5/ 8   2/ 80
KAHULUI HARBOR   0806   77 80   40/  5/ 10 1018.8
HONOLULU HARBOR  0806   80 81   20/  5/ 11 1019.0
PEARL HARBOR#    0800      80                N/A     3/ 5   2/170
KILO NALU        NOT AVBL
HILO HARBOR      0806   76 80  240/  2/  3 1018.2
MOKUOLOE         0736   80 82   80/ 12/ 15 1018.8R
NAWILIWILI       0806   79 83   50/  8/ 12 1019.2
WHOTS BUOY       NOT AVBL
BUOY 51028       NOT AVBL
$$

......................KEY........................................
  SKY/WX - SKY CONDITIONS/PRESENT WEATHER
  TMP    - TEMPERATURE IN FAHRENHEIT
  DWPT   - DEWPOINT IN FAHRENHEIT
  RH     - RELATIVE HUMIDITY IN PERCENT
  WIND   - DIRECTION AND SPEED /MPH FOR ISLANDS...KTS FOR BUOYS/
  PRES   - MEAN SEA LEVEL PRESSURE IN INCHES OF HG
  VSB    - VISIBILITY IN MILES
  HX     - HEAT INDEX
  WCI    - WIND CHILL INDEX
  VRB    - VARIABLE WIND DIRECTION
  N/A    - NOT AVAILABLE




USA.gov is the U.S. government's official web portal to all federal, state and local government web resources and services.